| time (UTC) | temp F | wind direction | speed MPH | gust MPH | rain 1hr in | rain 24hr in | rain mn in | humidity % | barometer mb |
| 20260510154547 | 59 | 139 | 2.0 | 9.0 | 0.00 | 0.56 | 0.00 | 83 | 1013.5 |
| 20260510153058 | 58 | 109 | 0.0 | 9.0 | 0.00 | 0.56 | 0.00 | 88 | 1013.6 |
| 20260510151541 | 57 | 148 | 5.0 | 9.0 | 0.00 | 0.56 | 0.00 | 92 | 1013.6 |
| 20260510150041 | 56 | 141 | 0.0 | 4.0 | 0.00 | 0.56 | 0.00 | 96 | 1013.6 |
| 20260510144542 | 55 | 154 | 0.0 | 5.0 | 0.00 | 0.60 | 0.00 | 97 | 1013.8 |
| 20260510143037 | 53 | 135 | 0.0 | 6.0 | 0.00 | 0.60 | 0.00 | 98 | 1013.9 |
| 20260510141530 | 52 | 187 | 1.0 | 7.0 | 0.00 | 0.60 | 0.00 | 98 | 1014.1 |
| 20260510140027 | 52 | 186 | 2.0 | 7.0 | 0.00 | 0.60 | 0.00 | 98 | 1013.7 |
| 20260510134526 | 51 | 186 | 2.0 | 8.0 | 0.00 | 0.60 | 0.00 | 98 | 1013.7 |
| 20260510133023 | 51 | 162 | 2.0 | 7.0 | 0.00 | 0.60 | 0.00 | 98 | 1013.7 |
| 20260510131525 | 50 | 129 | 1.0 | 6.0 | 0.00 | 0.60 | 0.00 | 98 | 1013.8 |
| 20260510130019 | 50 | 186 | 1.0 | 4.0 | 0.00 | 0.60 | 0.00 | 98 | 1013.9 |
| 20260510124525 | 49 | 149 | 1.0 | 7.0 | 0.00 | 0.60 | 0.00 | 98 | 1013.7 |
| 20260510123016 | 49 | 145 | 0.0 | 3.0 | 0.00 | 0.60 | 0.00 | 98 | 1013.7 |
| 20260510121517 | 49 | 135 | 0.0 | 4.0 | 0.00 | 0.60 | 0.00 | 98 | 1014.0 |
| 20260510120012 | 49 | 160 | 1.0 | 6.0 | 0.00 | 0.60 | 0.00 | 98 | 1014.0 |
| 20260510114512 | 48 | 134 | 2.0 | 9.0 | 0.00 | 0.60 | 0.00 | 98 | 1013.9 |
| 20260510113010 | 48 | 141 | 1.0 | 5.0 | 0.00 | 0.60 | 0.00 | 98 | 1013.6 |
| 20260510111506 | 48 | 136 | 2.0 | 9.0 | 0.00 | 0.60 | 0.00 | 98 | 1013.3 |
| 20260510110007 | 48 | 119 | 0.0 | 8.0 | 0.00 | 0.60 | 0.00 | 98 | 1013.1 |
| 20260510104504 | 47 | 102 | 2.0 | 6.0 | 0.00 | 0.60 | 0.00 | 98 | 1013.0 |
| 20260510103003 | 47 | 121 | 0.0 | 4.0 | 0.00 | 0.60 | 0.00 | 98 | 1012.7 |
| 20260510101501 | 47 | 84 | 0.0 | 5.0 | 0.00 | 0.60 | 0.00 | 98 | 1012.3 |
| 20260510100002 | 46 | 128 | 0.0 | 7.0 | 0.00 | 0.60 | 0.00 | 98 | 1012.3 |
| 20260510094501 | 46 | 186 | 0.0 | 2.0 | 0.00 | 0.60 | 0.00 | 98 | 1012.1 |
| 20260510093103 | 46 | 117 | 0.0 | 2.0 | 0.00 | 0.60 | 0.00 | 98 | 1012.5 |
| 20260510091558 | 46 | 149 | 0.0 | 1.0 | 0.00 | 0.60 | 0.00 | 98 | 1012.6 |
| 20260510084611 | 47 | 132 | 0.0 | 0.0 | 0.00 | 0.60 | 0.00 | 98 | 1012.5 |
| 20260510083053 | 47 | 186 | 0.0 | 4.0 | 0.00 | 0.60 | 0.00 | 98 | 1012.6 |
| 20260510081555 | 47 | 145 | 0.0 | 0.0 | 0.00 | 0.60 | 0.00 | 98 | 1012.5 |
| 20260510080049 | 47 | 153 | 0.0 | 2.0 | 0.00 | 0.60 | 0.00 | 98 | 1012.4 |
| 20260510074549 | 46 | 153 | 0.0 | 0.0 | 0.00 | 0.60 | 0.00 | 98 | 1012.4 |
| 20260510073055 | 46 | 115 | 0.0 | 0.0 | 0.00 | 0.60 | 0.00 | 98 | 1012.4 |
| 20260510071550 | 45 | 186 | 0.0 | 0.0 | 0.00 | 0.60 | 0.00 | 97 | 1012.6 |
| 20260510070050 | 47 | 124 | 0.0 | 1.0 | 0.00 | 0.60 | 0.00 | 98 | 1012.6 |
| 20260510064550 | 47 | 117 | 0.0 | 1.0 | 0.00 | 0.60 | 0.00 | 98 | 1012.6 |
| 20260510063048 | 46 | 118 | 0.0 | 2.0 | 0.00 | 0.60 | 0.00 | 98 | 1012.5 |
| 20260510061542 | 46 | 121 | 0.0 | 3.0 | 0.00 | 0.60 | 0.00 | 97 | 1012.5 |
| 20260510060041 | 46 | 114 | 0.0 | 2.0 | 0.00 | 0.60 | 0.00 | 97 | 1012.5 |
| 20260510054540 | 46 | 94 | 0.0 | 1.0 | 0.00 | 0.60 | 0.00 | 97 | 1012.7 |
| 20260510053039 | 46 | 117 | 0.0 | 2.0 | 0.00 | 0.60 | 0.00 | 97 | 1013.2 |
| 20260510051542 | 46 | 132 | 0.0 | 5.0 | 0.00 | 0.60 | 0.00 | 97 | 1013.2 |
| 20260510050036 | 46 | 123 | 0.0 | 2.0 | 0.00 | 0.60 | 0.00 | 97 | 1013.1 |
| 20260510044535 | 46 | 102 | 0.0 | 0.0 | 0.00 | 0.60 | 0.00 | 97 | 1013.1 |
| 20260510043034 | 46 | 186 | 0.0 | 1.0 | 0.00 | 0.60 | 0.00 | 97 | 1013.2 |
| 20260510041530 | 45 | 106 | 0.0 | 7.0 | 0.00 | 0.60 | 0.00 | 97 | 1012.9 |
| 20260510040028 | 45 | 139 | 0.0 | 2.0 | 0.00 | 0.60 | 0.00 | 97 | 1013.0 |
| 20260510034530 | 45 | 111 | 0.0 | 1.0 | 0.00 | 0.60 | 0.60 | 97 | 1013.3 |
| 20260510033028 | 45 | 112 | 0.0 | 1.0 | 0.00 | 0.60 | 0.60 | 97 | 1013.3 |
| 20260510031527 | 45 | 127 | 0.0 | 1.0 | 0.00 | 0.60 | 0.60 | 97 | 1013.7 |
| 20260510030026 | 45 | 104 | 0.0 | 5.0 | 0.00 | 0.60 | 0.60 | 97 | 1013.6 |
| 20260510024528 | 44 | 186 | 0.0 | 0.0 | 0.00 | 0.60 | 0.60 | 97 | 1013.9 |
| 20260510023025 | 44 | 159 | 0.0 | 0.0 | 0.00 | 0.60 | 0.60 | 97 | 1013.9 |
| 20260510021524 | 43 | 126 | 0.0 | 0.0 | 0.00 | 0.60 | 0.60 | 97 | 1013.9 |
| 20260510020023 | 43 | 186 | 0.0 | 0.0 | 0.00 | 0.60 | 0.60 | 97 | 1014.1 |
| 20260510014523 | 43 | 186 | 0.0 | 0.0 | 0.00 | 0.60 | 0.60 | 97 | 1014.2 |
| 20260510013022 | 43 | 186 | 0.0 | 0.0 | 0.00 | 0.60 | 0.60 | 97 | 1014.1 |
| 20260510011535 | 44 | 52 | 0.0 | 0.0 | 0.00 | 0.60 | 0.60 | 97 | 1014.1 |
| 20260510010021 | 44 | 53 | 0.0 | 0.0 | 0.00 | 0.60 | 0.60 | 97 | 1014.1 |
| 20260510004521 | 43 | 186 | 0.0 | 0.0 | 0.00 | 0.60 | 0.60 | 97 | 1013.9 |
| 20260510003024 | 43 | 186 | 0.0 | 0.0 | 0.00 | 0.60 | 0.60 | 97 | 1013.9 |
| 20260510001519 | 43 | 165 | 0.0 | 0.0 | 0.00 | 0.60 | 0.60 | 97 | 1013.6 |
| 20260510000022 | 43 | 92 | 0.0 | 0.0 | 0.00 | 0.60 | 0.60 | 97 | 1013.5 |
| 20260509234519 | 43 | 143 | 0.0 | 0.0 | 0.00 | 0.60 | 0.60 | 97 | 1013.4 |
| 20260509233018 | 43 | 181 | 0.0 | 0.0 | 0.00 | 0.60 | 0.60 | 96 | 1013.3 |
| 20260509231517 | 44 | 56 | 0.0 | 0.0 | 0.00 | 0.60 | 0.60 | 96 | 1013.2 |
| 20260509230017 | 44 | 186 | 0.0 | 1.0 | 0.01 | 0.60 | 0.60 | 96 | 1013.2 |
| 20260509224518 | 44 | 51 | 0.0 | 1.0 | 0.02 | 0.60 | 0.60 | 96 | 1013.0 |
| 20260509223017 | 44 | 80 | 0.0 | 3.0 | 0.03 | 0.60 | 0.60 | 96 | 1013.0 |
| 20260509221514 | 44 | 51 | 0.0 | 2.0 | 0.06 | 0.60 | 0.60 | 96 | 1012.9 |
| 20260509220012 | 44 | 157 | 0.0 | 2.0 | 0.07 | 0.59 | 0.59 | 96 | 1013.3 |
| 20260509214510 | 44 | 186 | 0.0 | 1.0 | 0.09 | 0.57 | 0.57 | 96 | 1013.4 |
| 20260509213010 | 44 | 186 | 0.0 | 1.0 | 0.10 | 0.56 | 0.56 | 96 | 1014.1 |
| 20260509211515 | 44 | 133 | 0.0 | 1.0 | 0.08 | 0.54 | 0.54 | 96 | 1014.6 |
| 20260509210008 | 44 | 105 | 0.0 | 0.0 | 0.07 | 0.52 | 0.52 | 96 | 1014.4 |
| 20260509204508 | 44 | 144 | 0.0 | 0.0 | 0.05 | 0.49 | 0.49 | 96 | 1014.3 |
| 20260509203012 | 44 | 186 | 0.0 | 2.0 | 0.05 | 0.47 | 0.47 | 96 | 1014.2 |
| 20260509201507 | 44 | 153 | 0.0 | 2.0 | 0.06 | 0.46 | 0.46 | 96 | 1013.7 |
| 20260509200006 | 44 | 153 | 0.0 | 2.0 | 0.06 | 0.45 | 0.45 | 96 | 1013.7 |
| 20260509194505 | 44 | 156 | 0.0 | 1.0 | 0.08 | 0.44 | 0.44 | 96 | 1013.8 |
| 20260509193004 | 45 | 105 | 0.0 | 7.0 | 0.07 | 0.41 | 0.41 | 96 | 1014.1 |
| 20260509191503 | 44 | 116 | 0.0 | 1.0 | 0.08 | 0.40 | 0.40 | 96 | 1013.9 |
| 20260509184607 | 44 | 142 | 0.0 | 1.0 | 0.10 | 0.36 | 0.36 | 95 | 1014.5 |
| 20260509183100 | 44 | 142 | 0.0 | 4.0 | 0.11 | 0.34 | 0.34 | 95 | 1015.0 |
| 20260509181621 | 44 | 127 | 0.0 | 4.0 | 0.12 | 0.32 | 0.32 | 95 | 1014.8 |
| 20260509180058 | 44 | 148 | 0.0 | 6.0 | 0.12 | 0.28 | 0.28 | 95 | 1015.1 |
| 20260509174559 | 44 | 113 | 0.0 | 4.0 | 0.11 | 0.26 | 0.26 | 95 | 1015.2 |
| 20260509173104 | 44 | 119 | 0.0 | 0.0 | 0.10 | 0.23 | 0.23 | 95 | 1015.1 |
| 20260509171556 | 44 | 121 | 0.0 | 2.0 | 0.09 | 0.20 | 0.20 | 94 | 1015.2 |
| 20260509170055 | 44 | 148 | 1.0 | 3.0 | 0.07 | 0.17 | 0.17 | 94 | 1015.3 |
| 20260509164554 | 44 | 186 | 0.0 | 1.0 | 0.07 | 0.15 | 0.15 | 94 | 1015.0 |
| 20260509163054 | 44 | 165 | 0.0 | 2.0 | 0.07 | 0.13 | 0.13 | 93 | 1015.2 |
| 20260509161552 | 44 | 134 | 1.0 | 3.0 | 0.06 | 0.11 | 0.11 | 93 | 1015.4 |
| 20260509160053 | 44 | 123 | 0.0 | 6.0 | 0.06 | 0.09 | 0.09 | 92 | 1015.6 |